Tracking 27422 objects as of 30-May-2023
HD Live streaming from Space Station
objects crossing your sky now

COSMOS 626

Track COSMOS 626 now!
10-day predictions
COSMOS 626 is classified as:


NORAD ID: 7005
Int'l Code: 1973-108A
Perigee: 913.9 km
Apogee: 990.0 km
Inclination: 65.4 °
Period: 103.9 minutes
Semi major axis: 7322 km
RCS: 3.2756 m2 (large)
Launch date: December 27, 1973
Source: Commonwealth of Independent States (former USSR) (CIS)
Launch site: TYURATAM MISSILE AND SPACE COMPLEX (TTMTR)
Your satellite tracking list
Your tracking list is empty




NASA's NSSDC Master Catalog

Two Line Element Set (TLE):
1  7005U 73108A   23150.17575739 -.00000071  00000-0  12618-4 0  9997
2  7005  65.4393  58.2457 0051975 181.0630 179.0333 13.85405396500567
Source of the keplerian elements: AFSPC